Regional Weather Roundup
Issued by NWS

Home | Current Version | Previous Version | Graphics & Text | Print | Product List | Glossary On
Versions: 1 2 3 4 5 6 7 8 9 10 11 12 13 14 15 16 17 18 19 20 21 22 23 24 25 26 27 28 29 30 31 32 33 34 35 36 37 38 39 40 41 42 43 44 45 46 47 48 49 50
000
ASUS43 KLMK 230910
RWRKY
KENTUCKY REGIONAL WEATHER ROUNDUP
NATIONAL WEATHER SERVICE LOUISVILLE KY
500 AM EDT WED MAY 23 2018

NOTE "FAIR" INDICATES FEW OR NO CLOUDS BELOW 12,000 FEET
WITH NO SIGNIFICANT WEATHER AND/OR OBSTRUCTIONS TO VISIBILITY.

KYZ001>023-026-027-061>063-070>075-231000-
WESTERN AND SOUTH CENTRAL KENTUCKY

CITY           SKY/WX    TMP DP  RH WIND       PRES   REMARKS
PADUCAH        FAIR      68  66  93 CALM      30.03S
HENDERSON      NOT AVBL
OWENSBORO      FAIR      70  66  87 N3        30.05R
HOPKINSVILLE   FAIR      67  67 100 SW3       30.04R
BOWLING GREEN  FAIR      67  66  97 CALM      30.04R
GLASGOW        FOG       64  64  97 CALM      30.05R VSB 1/2
$$

KYZ024-025-028>034-038-045-046-053-231000-
NORTH CENTRAL KENTUCKY

CITY           SKY/WX    TMP DP  RH WIND       PRES   REMARKS
LOUISVILLE/SDF MOCLDY    71  64  78 N9        30.06R
LOUISVILLE/LOU FAIR      70  65  84 N8        30.06R
FORT KNOX      FAIR      66  66 100 NW3       30.06R FOG
$$

KYZ035>037-039>044-047>052-055>060-089>105-231000-
NORTHEAST KENTUCKY

CITY           SKY/WX    TMP DP  RH WIND       PRES   REMARKS
LEXINGTON      MOCLDY    67  64  90 CALM      30.07R
COVINGTON      MOCLDY    63  59  87 N7        30.08R
FRANKFORT      FAIR      67  64  90 N6        30.06R
$$

KYZ054-064>069-076>088-106>120-231000-
SOUTHEAST KENTUCKY

CITY           SKY/WX    TMP DP  RH WIND       PRES   REMARKS
JACKSON        CLOUDY    66  64  93 CALM      30.08R
LONDON         CLOUDY    63  63 100 CALM      30.07S FOG
SOMERSET       FOG       63  63 100 MISG      30.08S VSB 3/4
MIDDLESBORO    FOG       64  64 100 CALM      30.09R VSB 1/2
MONTICELLO     FOG       60  60 100 W9        30.09  VSB 1/2
$$




USA.gov is the U.S. government's official web portal to all federal, state and local government web resources and services.